Home > Weather > Ibbenbüren > Past weeks

Flag for Germany Past Weather in Ibbenbüren, North Rhine-Westphalia, Germany — Yesterday and Last 2 Weeks

Now
70 °F

Clear.


Feels Like: 70 °F
Forecast: 59 / 73 °F
Wind: 1 mph from North

Location: Muenster / Osnabrueck

Current Time: Jul 25, 2016 at 2:28:28 AM

Latest Report: Jul 25, 2016 at 1:50 AM


Visibility: 10 mi

Pressure: 30.07 "Hg

Humidity: 83%

Dew Point: 64 °F

Location of IbbenbürenLocation

Past Weather in Ibbenbüren — Graph

°F

Ibbenbüren Temperature Yesterday

Maximum temperature yesterday: 81 °F (at 2:50 PM)
Minimum temperature yesterday: 59 °F (at 3:20 AM)
Average temperature yesterday: 71 °F

High & Low Weather Summary for the Past Weeks

 TemperatureHumidityPressure
High93 °F (Jul 20, 3:50 PM)100% (Jul 13, 2:50 AM)30.27 "Hg (Jul 13, 2:50 AM)
Low48 °F (Jul 14, 5:20 AM)23% (Jul 19, 12:50 PM)29.74 "Hg (Jul 10, 7:20 PM)
Average68 °F71%30.03 "Hg
* Reported Jul 10 1:20 AM — Jul 25 1:20 AM, Ibbenbüren, Weather by CustomWeather, © 2016

Note: Actual official high and low records may vary slightly from our data, if they occured in-between our weather recording intervals... More about our weather records

Advertising

Ibbenbüren Weather History for the Previous 24 Hours

Scroll right to see more
 ConditionsComfort  
Time TempWeatherWind HumidityBarometerVisibility
1:20 AM
Mon, Jul 25
70 °FClear.No wind83%30.07 "Hg10 mi
12:50 AM72 °FClear.3 mph78%30.07 "Hg10 mi
12:20 AM72 °FClear.3 mph78%30.07 "Hg10 mi
11:50 PM
Sun, Jul 24
72 °FClear.2 mph78%30.07 "Hg10 mi
11:20 PM70 °FClear.No wind88%30.07 "Hg10 mi
10:50 PM70 °FClear.No wind88%30.07 "Hg10 mi
10:20 PM72 °FSunny.No wind78%30.07 "Hg10 mi
9:50 PM72 °FSunny.No wind78%30.07 "Hg10 mi
9:20 PM73 °FSunny.1 mph74%30.07 "Hg10 mi
8:50 PM77 °FSunny.2 mph61%30.07 "Hg10 mi
8:20 PM79 °FSunny.3 mph58%30.07 "Hg10 mi
7:50 PM79 °FPassing clouds.3 mph58%30.07 "HgN/A
7:20 PM79 °FBroken clouds.5 mph58%30.07 "HgN/A
6:50 PM81 °FBroken clouds.5 mph54%30.07 "HgN/A
6:20 PM81 °FBroken clouds.6 mph51%30.07 "HgN/A
5:50 PM79 °FPartly sunny.5 mph54%30.07 "HgN/A
5:20 PM79 °FScattered clouds.5 mph54%30.07 "HgN/A
4:50 PM81 °FScattered clouds.7 mph48%30.07 "HgN/A
4:20 PM81 °FScattered clouds.5 mph45%30.07 "HgN/A
3:50 PM81 °FScattered clouds.5 mph48%30.07 "HgN/A
3:20 PM81 °FPassing clouds.5 mph48%30.09 "HgN/A
2:50 PM81 °FPassing clouds.3 mph45%30.09 "HgN/A
2:20 PM79 °FPassing clouds.2 mph51%30.09 "HgN/A
1:50 PM79 °FPassing clouds.5 mph54%30.09 "HgN/A
1:20 PM79 °FPassing clouds.7 mph58%30.09 "HgN/A
12:50 PM79 °FPassing clouds.5 mph54%30.09 "HgN/A
12:20 PM77 °FPassing clouds.5 mph61%30.09 "HgN/A
11:50 AM77 °FPassing clouds.5 mph61%30.09 "HgN/A
11:20 AM75 °FPassing clouds.3 mph61%30.09 "HgN/A
10:50 AM73 °FPassing clouds.5 mph69%30.09 "HgN/A
10:20 AM73 °FPassing clouds.2 mph74%30.09 "HgN/A
9:50 AM72 °FSunny.2 mph78%30.09 "Hg10 mi
9:20 AM70 °FSunny.2 mph83%30.09 "Hg10 mi
8:50 AM66 °FSunny.3 mph88%30.09 "Hg10 mi
8:20 AM66 °FClear.No wind88%30.09 "Hg6 mi
7:50 AM64 °FClear.No wind94%30.09 "Hg6 mi
7:20 AM64 °FClear.No wind94%30.09 "Hg6 mi
6:50 AM61 °FFog.No wind100%30.09 "Hg6 mi
6:20 AM59 °FFog.No wind100%30.09 "HgN/A
5:50 AM59 °FLight fog.No wind100%30.09 "HgN/A
5:20 AM59 °FLight fog.No wind94%30.09 "HgN/A
4:50 AM59 °FFog.No wind94%30.09 "HgN/A
4:20 AM59 °FFog.No wind100%30.09 "HgN/A
3:50 AM59 °FFog.No wind100%30.09 "HgN/A
3:20 AM59 °FFog.No wind100%30.09 "HgN/A
2:50 AM61 °FFog.No wind94%30.09 "HgN/A
2:20 AM61 °FFog.No wind94%30.09 "HgN/A
Weather by CustomWeather, © 2016

See weather overviewHow to use our weather pages